Stations météo

réclame
Mon MeteoGroup
Hemling, Suède (2265): Température de l'air & dewpoint: 17.05.2018 22:00:00 - 23.05.2018 22:00:00 (CEST)Hemling, Suède (2265): Vitesse du vent & gusts: 17.05.2018 22:00:00 - 23.05.2018 22:00:00 (CEST)Hemling, Suède (2265): Direction du vent: 17.05.2018 22:00:00 - 23.05.2018 22:00:00 (CEST)Hemling, Suède (2265): reduced air pressure: 17.05.2018 22:00:00 - 23.05.2018 22:00:00 (CEST)Hemling, Suède (2265): visibility: 17.05.2018 22:00:00 - 23.05.2018 22:00:00 (CEST)Hemling, Suède (2265): Quantités de précipitations: 17.05.2018 22:00:00 - 23.05.2018 22:00:00 (CEST)
Date & Time tt [°C] td [°C] ff [km/h] ff [knt] fx [km/h] fx [knt] dd ppp [hPa] vv [km] rr [mm]
23.05.2018 22:00:00 8,4 1,1 7 4 14 8 SE 1029,2 50 0,0
23.05.2018 21:00:00 11,2 2,2 8 4 15 8 SE 1028,3 50 0,0
23.05.2018 20:00:00 13,2 1,5 9 5 20 11 SSE 1027,5 49 0,0
23.05.2018 19:00:00 14,4 2,3 12 7 23 13 SSE 1026,9 42 0,0
23.05.2018 18:00:00 15,2 2,4 13 7 22 12 S 1026,4 44 0,0
23.05.2018 17:00:00 17,4 -2,8 8 4 18 10 W 1026,0 39 0,0
23.05.2018 16:00:00 17,0 -2,7 11 6 21 11 NNE 1026,1 43 0,0
23.05.2018 15:00:00 16,4 -2,7 9 5 19 11 ENE 1026,1 40 0,0
23.05.2018 14:00:00 15,0 -4,4 8 4 22 12 N 1026,5 45 0,0
23.05.2018 13:00:00 15,2 -3,2 8 4 21 11 W 1026,4 41 0,0
23.05.2018 12:00:00 14,1 -0,4 6 4 20 11 N 1026,3 43 0,0
23.05.2018 11:00:00 13,2 -0,5 6 3 17 9 WNW 1026,3 42 0,0
23.05.2018 10:00:00 11,7 0,2 8 5 21 11 NNW 1026,2 43 0,0
23.05.2018 09:00:00 10,8 -0,4 10 6 23 12 NNW 1025,9 42 0,0
23.05.2018 08:00:00 10,0 -0,5 10 6 22 12 N 1025,4 44 0,0
23.05.2018 07:00:00 8,4 -0,4 9 5 23 12 NNW 1025,3 48 0,0
23.05.2018 06:00:00 7,5 -0,7 9 5 25 13 NNW 1025,0 46 0,0
23.05.2018 05:00:00 6,9 -0,8 10 5 28 15 NNW 1024,3 50 0,0
23.05.2018 04:00:00 6,9 -1,0 12 6 26 14 NNW 1023,6 50 0,0
23.05.2018 03:00:00 8,0 1,4 10 5 29 15 NNW 1022,8 50 0,0
23.05.2018 02:00:00 9,5 2,8 8 5 29 16 NNW 1021,9 50 0,0
23.05.2018 01:00:00 10,3 4,2 9 5 29 16 NNW 1021,1 50 0,0
23.05.2018 00:00:00 12,4 5,1 14 7 40 22 NNW 1020,3 50 0,0
22.05.2018 23:00:00 14,2 5,8 15 8 37 20 NNW 1019,1 41 0,0
22.05.2018 22:00:00 17,3 5,3 16 9 37 20 NNW 1017,7 37 0,0
22.05.2018 21:00:00 18,2 10,8 0 0 10 5 N 1016,4 35 0,0
22.05.2018 20:00:00 18,3 10,6 6 3 13 7 SE 1015,8 44 0,0
22.05.2018 19:00:00 19,3 10,6 3 2 16 9 SSW 1015,9 43 0,0
22.05.2018 18:00:00 20,2 9,7 12 6 21 12 S 1015,9 36 0,0
22.05.2018 17:00:00 20,5 9,7 13 7 25 14 SSE 1016,0 37 0,0
22.05.2018 16:00:00 22,0 9,2 14 7 21 12 SSE 1015,7 20 0,0
22.05.2018 15:00:00 23,6 6,8 5 3 20 11 SSW 1015,9 41 0,0
22.05.2018 14:00:00 23,0 8,3 8 4 23 13 SSE 1016,4 34 0,0
22.05.2018 13:00:00 22,1 7,9 13 7 24 13 S 1016,8 40 0,0
22.05.2018 12:00:00 21,6 8,5 10 5 26 14 S 1017,4 48 0,0
22.05.2018 11:00:00 21,2 7,1 16 9 28 15 S 1017,8 38 0,0
22.05.2018 10:00:00 19,5 8,2 10 6 19 10 SSE 1018,3 42 0,0
22.05.2018 09:00:00 18,1 7,2 11 6 22 12 SE 1018,6 33 0,0
22.05.2018 08:00:00 15,3 7,1 4 2 8 4 SE 1019,4 39 0,0
22.05.2018 07:00:00 13,3 6,9 4 2 7 4 ESE 1020,1 44 0,0
22.05.2018 06:00:00 11,2 7,9 3 1 8 4 SE 1020,8 36 0,0
22.05.2018 05:00:00 6,1 5,1 0 0 4 2 N 1021,5 14 0,0
22.05.2018 04:00:00 4,4 3,7 3 2 5 3 WNW 1022,0 13 0,0
22.05.2018 03:00:00 5,9 5,5 0 0 4 2 N 1021,9 21 0,0
22.05.2018 02:00:00 6,5 5,9 0 0 4 2 N 1022,4 24 0,0
22.05.2018 01:00:00 7,8 6,9 3 2 4 2 WNW 1022,2 34 0,0
22.05.2018 00:00:00 9,9 7,8 0 0 5 3 N 1021,9 46 0,0
21.05.2018 23:00:00 11,6 8,2 0 0 5 3 N 1021,9 37 0,0
21.05.2018 22:00:00 13,6 8,6 0 0 6 4 N 1021,7 26 0,0
21.05.2018 21:00:00 18,4 7,8 0 0 12 7 N 1021,3 46 0,0
21.05.2018 20:00:00 21,5 5,8 9 5 16 8 SE 1020,5 50 0,0
21.05.2018 19:00:00 22,5 7,9 11 6 21 11 SE 1020,4 45 0,0
21.05.2018 18:00:00 23,1 7,6 16 8 32 17 SE 1020,2 44 0,0
21.05.2018 17:00:00 24,6 6,8 16 9 29 15 SSE 1019,8 37 0,0
21.05.2018 16:00:00 26,2 4,6 6 3 19 10 NNW 1019,6 24 0,0
21.05.2018 15:00:00 25,0 4,2 12 6 21 11 E 1019,9 49 0,0
21.05.2018 14:00:00 25,1 1,9 6 3 14 7 S 1020,1 43 0,0
21.05.2018 13:00:00 24,8 4,0 5 3 21 12 SSE 1020,1 40 0,0
21.05.2018 12:00:00 23,7 2,5 7 4 16 9 WSW 1020,6 38 0,0
21.05.2018 11:00:00 22,7 2,7 7 4 15 8 W 1020,7 50 0,0
21.05.2018 10:00:00 21,0 2,8 5 3 11 6 NNE 1020,7 40 0,0
21.05.2018 09:00:00 19,6 3,3 9 5 18 10 W 1020,7 45 0,0
21.05.2018 08:00:00 17,4 4,4 7 4 14 7 NW 1020,8 38 0,0
21.05.2018 07:00:00 11,9 7,8 2 1 4 2 E 1021,0 35 0,0
21.05.2018 06:00:00 8,6 6,6 3 1 5 3 N 1021,1 33 0,0
21.05.2018 05:00:00 5,0 4,7 3 1 6 3 N 1020,8 21 0,0
21.05.2018 04:00:00 4,1 3,8 0 0 4 2 N 1020,4 22 0,0
21.05.2018 03:00:00 4,2 3,6 2 1 6 3 SSE 1020,3 26 0,0
21.05.2018 02:00:00 5,4 5,1 0 0 4 2 N 1019,8 14 0,0
21.05.2018 01:00:00 6,8 5,9 0 0 5 3 N 1019,5 30 0,0
21.05.2018 00:00:00 9,8 7,6 3 1 6 3 ENE 1019,1 36 0,0
20.05.2018 23:00:00 10,3 7,5 3 2 8 5 SE 1019,0 48 0,0
20.05.2018 22:00:00 14,7 9,1 0 0 6 4 N 1018,8 50 0,0
20.05.2018 21:00:00 17,3 7,3 4 2 8 4 SSE 1018,3 35 0,0
20.05.2018 20:00:00 18,0 7,7 0 0 7 4 N 1018,0 36 0,0
20.05.2018 19:00:00 18,1 7,2 3 2 14 8 SSE 1018,3 50 0,0
20.05.2018 18:00:00 18,1 6,9 8 4 18 10 SE 1018,6 50 0,0
20.05.2018 17:00:00 18,8 6,3 11 6 19 10 SE 1018,9 42 0,0
20.05.2018 16:00:00 18,5 5,7 10 5 19 10 SSE 1019,0 42 0,0
20.05.2018 15:00:00 18,3 5,2 11 6 20 11 S 1019,3 50 0,0
20.05.2018 14:00:00 18,4 4,9 11 6 24 13 S 1019,5 41 0,0
20.05.2018 13:00:00 18,1 5,7 11 6 26 14 SSE 1019,6 42 0,0
20.05.2018 12:00:00 17,5 7,0 15 8 25 13 SE 1020,2 43 0,0
20.05.2018 11:00:00 17,4 4,7 15 8 27 15 SSE 1020,6 47 0,0
20.05.2018 10:00:00 16,7 5,6 10 6 21 11 SSE 1021,1 50 0,0
20.05.2018 09:00:00 14,8 5,0 7 4 11 6 ESE 1021,9 49 0,0
20.05.2018 08:00:00 11,1 5,4 4 2 6 3 ESE 1022,4 49 0,0
20.05.2018 07:00:00 7,2 4,7 0 0 3 1 N 1022,8 50 0,0
20.05.2018 06:00:00 5,1 3,6 0 0 6 4 N 1023,1 46 0,0
20.05.2018 05:00:00 3,8 3,1 0 0 4 2 N 1023,0 50 0,0
20.05.2018 04:00:00 2,8 2,4 0 0 2 1 N 1023,1 50 0,0
20.05.2018 03:00:00 2,9 2,3 0 0 3 2 N 1022,8 48 0,0
20.05.2018 02:00:00 3,8 2,8 0 0 4 2 N 1022,6 50 0,0
20.05.2018 01:00:00 4,2 2,9 2 1 9 5 ESE 1022,5 49 0,0
20.05.2018 00:00:00 7,0 3,6 2 1 9 5 NNW 1022,0 50 0,0
19.05.2018 23:00:00 7,0 3,8 0 0 8 4 N 1021,5 50 0,0
19.05.2018 22:00:00 10,4 3,7 5 3 10 5 W 1020,7 50 0,0
19.05.2018 21:00:00 14,6 2,5 6 3 16 9 NW 1020,1 50 0,0
19.05.2018 20:00:00 16,1 2,1 9 5 29 15 NW 1019,8 50 0,0
19.05.2018 19:00:00 17,3 2,1 11 6 27 15 NNW 1019,1 50 0,0
19.05.2018 18:00:00 18,0 0,6 12 6 25 14 NW 1018,7 44 0,0
19.05.2018 17:00:00 18,3 0,0 12 6 36 19 WNW 1018,4 50 0,0
19.05.2018 16:00:00 18,9 -1,0 18 10 28 15 W 1018,1 45 0,0
19.05.2018 15:00:00 18,6 1,6 13 7 28 15 W 1018,3 49 0,0
19.05.2018 14:00:00 17,6 1,5 11 6 27 15 WNW 1018,6 33 0,0
19.05.2018 13:00:00 16,4 1,3 7 4 27 14 W 1018,8 48 0,0
19.05.2018 12:00:00 15,8 0,8 8 4 27 15 W 1019,4 37 0,0
19.05.2018 11:00:00 14,7 -0,2 9 5 24 13 WNW 1019,8 42 0,0
19.05.2018 10:00:00 13,8 0,1 10 6 26 14 W 1020,2 39 0,0
19.05.2018 09:00:00 12,8 -0,5 10 5 22 12 WSW 1020,5 50 0,0
19.05.2018 08:00:00 9,9 1,3 3 1 5 3 ESE 1020,9 49 0,0
19.05.2018 07:00:00 7,1 0,3 0 0 3 2 N 1021,1 49 0,0
19.05.2018 06:00:00 3,1 0,3 0 0 3 1 N 1021,6 50 0,0
19.05.2018 05:00:00 1,0 -0,6 0 0 2 1 N 1021,9 50 0,0
19.05.2018 04:00:00 -1,3 -1,7 0 0 4 2 N 1021,9 46 0,0
19.05.2018 03:00:00 -0,8 -2,1 0 0 4 2 N 1021,8 50 0,0
19.05.2018 02:00:00 0,0 -1,7 0 0 9 5 N 1021,6 50 0,0
19.05.2018 01:00:00 0,6 -1,5 0 0 3 2 N 1021,5 50 0,0
19.05.2018 00:00:00 0,9 -0,7 0 0 4 2 N 1021,4 50 0,0
18.05.2018 23:00:00 2,1 -1,2 0 0 5 3 N 1021,2 15 0,0
18.05.2018 22:00:00 6,3 -0,2 0 0 9 5 N 1020,5 50 0,0
18.05.2018 21:00:00 11,0 -2,4 4 2 18 10 NW 1019,8 50 0,0
18.05.2018 20:00:00 12,9 -3,0 10 5 24 13 NNW 1019,2 48 0,0
18.05.2018 19:00:00 13,6 -3,7 11 6 24 13 NNW 1018,8 50 0,0
18.05.2018 18:00:00 14,1 -2,8 13 7 29 16 NNW 1018,7 50 0,0
18.05.2018 17:00:00 14,4 -2,5 11 6 30 16 NNW 1018,6 50 0,0
18.05.2018 16:00:00 14,2 -3,1 14 8 30 16 NW 1018,6 46 0,0
18.05.2018 15:00:00 14,3 -2,6 14 8 37 20 NNW 1018,7 50 0,0
18.05.2018 14:00:00 12,9 -1,8 14 7 34 18 NNW 1018,7 45 0,0
18.05.2018 13:00:00 13,0 -1,4 14 8 40 22 N 1018,5 49 0,0
18.05.2018 12:00:00 12,9 -1,1 14 7 35 19 NNW 1018,6 45 0,0
18.05.2018 11:00:00 11,9 -1,6 18 10 32 17 NW 1018,8 38 0,0
18.05.2018 10:00:00 11,6 -0,2 16 8 31 17 NW 1018,8 44 0,0
18.05.2018 09:00:00 10,3 -0,2 13 7 31 17 NNW 1018,8 50 0,0
18.05.2018 08:00:00 9,0 -0,6 13 7 29 16 NNW 1018,8 43 0,0
18.05.2018 07:00:00 7,6 -0,9 14 7 24 13 NW 1018,9 43 0,0
18.05.2018 06:00:00 5,6 -2,3 6 3 10 5 NNW 1019,1 44 0,0
18.05.2018 05:00:00 2,8 -2,7 4 2 8 4 NNW 1019,4 50 0,0
18.05.2018 04:00:00 1,6 -3,5 6 3 11 6 NNW 1019,4 50 0,0
18.05.2018 03:00:00 0,6 -3,0 6 3 11 6 WNW 1019,2 50 0,0
18.05.2018 02:00:00 0,3 -2,6 6 3 11 6 W 1019,1 50 0,0
18.05.2018 01:00:00 4,6 -2,7 7 4 21 12 NNW 1018,8 50 0,0
18.05.2018 00:00:00 3,0 -1,0 7 4 14 8 WNW 1018,8 50 0,0
17.05.2018 23:00:00 3,3 -1,1 4 2 11 6 NW 1018,7 50 0,0
17.05.2018 22:00:00 4,5 -0,5 2 1 7 4 NW 1018,4 50 0,0

tt = Température de l'air
td = dewpoint
ff = Vitesse du vent
fx = gusts
dd = Direction du vent
ppp = reduced air pressure
vv = visibility
rr = Quantités de précipitations

stations d'obs. à proximité